Regional Weather Roundup
Issued by NWS

Home | Current Version | Previous Version | Graphics & Text | Print | Product List | Glossary On
Versions: 1 2 3 4 5 6 7 8 9 10 11 12 13 14 15 16 17 18 19 20 21 22 23 24 25 26 27 28 29 30 31 32 33 34 35 36 37 38 39 40 41 42 43 44 45 46 47 48 49 50
434
ASUS45 KCYS 251210
RWRWY

WYOMING REGIONAL WEATHER ROUNDUP
NATIONAL WEATHER SERVICE CHEYENNE WY
500 AM MST SAT FEB 25 2017

NOTE:  "FAIR" INDICATES FEW OR NO CLOUDS BELOW 12,000 FEET
WITH NO SIGNIFICANT WEATHER AND/OR OBSTRUCTIONS TO VISIBILITY.

WYZ001-251300-
YELLOWSTONE NATIONAL PARK

CITY           SKY/WX    TMP DP  RH WIND       PRES   REMARKS
LK YELLOWSTONE   N/A      1  -1  91 CALM      29.87F
6HR MIN TEMP:   0; 6HR MAX TEMP:   3; 6HR PCP:  0.02;

W YELLOWSTONE  NOT AVBL

$$
WYZ002>013-054>058-071-098>099-251300-
NORTHERN WYOMING

CITY           SKY/WX    TMP DP  RH WIND       PRES   REMARKS
JACKSON        CLOUDY     7   3  85 CALM      29.96F
CODY           FAIR      20   4  50 W10       29.91F WCI   9
GREYBULL       CLOUDY    23  21  92 SE5       29.95F WCI  17
6HR MIN TEMP:  23; 6HR MAX TEMP:  27; 6HR PCP: TRACE;

WORLAND        FAIR      18  15  88 SE7       29.94F WCI   9
6HR MIN TEMP:  16; 6HR MAX TEMP:  21;

SHERIDAN       MOCLDY    19  14  81 S8        29.93F WCI   9
6HR MIN TEMP:  18; 6HR MAX TEMP:  24;

BUFFALO        FAIR      15   7  70 SW7       29.90F WCI   5
6HR MIN TEMP:  12; 6HR MAX TEMP:  21;

GILLETTE       FAIR      20  17  88 W9        29.91F WCI   9
6HR MIN TEMP:  17; 6HR MAX TEMP:  21;

HULETT         LGT SNOW  23  19  86 SW7       29.90F VSB 1   WCI  15
NEWCASTLE      CLOUDY    16  12  86 NW5       29.94S WCI   9

$$
WYZ014>020-022>026-101>103-251300-
CENTRAL WYOMING

CITY           SKY/WX    TMP DP  RH WIND       PRES   REMARKS
BIG PINEY      FAIR      -7 -11  83 E8        29.95F WCI -23
6HR MIN TEMP:  -9; 6HR MAX TEMP:   3;

PINEDALE       FAIR      -9 -15  77 N6        29.96F WCI -23
DUBOIS         FAIR       3  -6  66 W14       29.85F WCI -15
LANDER         FAIR       2  -3  80 N6        29.92S WCI  -9
6HR MIN TEMP:   0; 6HR MAX TEMP:  13;

RIVERTON       FAIR       7  -3  64 W15       29.92F WCI -10
6HR MIN TEMP:   5; 6HR MAX TEMP:  11;

CASPER         CLOUDY    13   7  77 SW10      29.93S WCI   0
6HR MIN TEMP:   9; 6HR MAX TEMP:  14;

DOUGLAS        FAIR       2  -2  83 NW5       29.93F WCI  -8
6HR MIN TEMP:  -5; 6HR MAX TEMP:   4;


$$
WYZ021-027>030-104>119-251300-
SOUTHERN WYOMING

CITY           SKY/WX    TMP DP  RH WIND       PRES   REMARKS
EVANSTON       FAIR       4  -2  76 SW10      29.97S WCI -11
6HR MIN TEMP:   4; 6HR MAX TEMP:   8;

KEMMERER         N/A    N/A N/A N/A CALM      29.95F
FORT BRIDGER   FAIR       9   0  66 SW9       30.00S WCI  -5
ROCK SPRINGS   FAIR       4  -2  76 W12       29.97F WCI -12
6HR MIN TEMP:   4; 6HR MAX TEMP:   9;

DIXON            N/A      0  -5  81 CALM      30.04F
RAWLINS        FAIR       6  -1  73 SW10      29.94S WCI  -9
6HR MIN TEMP:   4; 6HR MAX TEMP:  10;

SARATOGA       FAIR       3  -4  72 SW9       29.96S WCI -11
LARAMIE        FAIR       6  -3  66 SW12      29.87R WCI  -9
6HR MIN TEMP:   3; 6HR MAX TEMP:  11;

CHEYENNE       FAIR       9  -1  64 S6        29.88F WCI  -1
6HR MIN TEMP:   5; 6HR MAX TEMP:  14;

TORRINGTON     FAIR      -2  -6  83 NW7       29.95F WCI -15
6HR MIN TEMP:  -2; 6HR MAX TEMP:   9;

PINE BLUFFS    FAIR       3   0  85 MISG      29.94S

$$




USA.gov is the U.S. government's official web portal to all federal, state and local government web resources and services.